Total_Precipitation_Accumulation
0.96 1.01 1.00 1.05 1.15 1.42 1.65 1.60 1.42 1.41 1.43 1.40 1.35 1.43 1.58 1.71 1.82 1.95 2.01 2.02 2.05 2.18 2.13 2.08 2.16 2.27 2.51 2.48 2.53 2.51 2.40 2.32 2.28 2.07 1.71 1.71 1.95 2.04 1.96 1.77 1.61 1.58 1.42
0.78 0.83 0.91 0.92 1.02 1.14 1.26 1.28 1.23 1.14 1.12 1.17 1.22 1.24 1.32 1.49 1.61 1.66 1.68 1.71 1.78 1.91 1.97 1.92 1.94 2.01 2.13 2.34 2.44 2.44 2.44 2.38 2.37 2.32 1.98 1.80 1.77 1.90 1.98 1.95 1.70 1.56 1.46
0.71 0.77 0.84 0.85 0.87 0.90 0.92 0.86 0.90 0.92 0.98 1.04 1.16 1.21 1.29 1.36 1.52 1.54 1.52 1.49 1.53 1.61 1.74 1.81 1.86 1.88 1.91 2.04 2.01 2.10 2.24 2.40 2.48 2.40 2.24 2.02 1.86 1.84 1.92 1.89 1.83 1.84 1.61
0.81 0.89 0.92 0.93 0.92 0.93 0.91 0.87 0.88 0.91 0.95 1.07 1.25 1.31 1.32 1.34 1.34 1.40 1.46 1.44 1.34 1.31 1.37 1.41 1.54 1.67 1.71 1.88 1.85 1.86 2.02 2.27 2.54 2.54 2.41 2.17 2.02 1.97 1.94 1.90 1.94 1.92 1.83
0.74 0.85 0.89 0.91 0.94 0.90 0.83 0.81 0.85 0.83 0.82 0.96 1.12 1.28 1.33 1.32 1.28 1.36 1.43 1.45 1.39 1.24 1.19 1.21 1.26 1.40 1.67 1.78 1.74 1.94 2.09 2.14 2.28 2.42 2.41 2.34 2.17 1.99 1.86 1.77 1.85 1.91 1.95
0.63 0.75 0.92 0.95 0.86 0.82 0.74 0.72 0.75 0.74 0.72 0.81 0.96 1.13 1.23 1.21 1.60 1.60 1.43 1.42 1.39 1.26 1.16 1.15 1.12 1.11 1.33 1.63 1.78 1.91 2.03 2.11 2.16 2.19 2.23 2.17 2.11 2.05 2.10 2.04 1.92 1.85 1.84
0.57 0.71 0.91 0.90 0.78 0.72 0.76 0.79 0.76 0.74 0.74 0.79 0.83 0.85 0.95 1.24 1.29 1.08 1.13 1.18 1.30 1.21 1.10 1.02 0.94 0.93 1.08 1.17 1.34 1.45 1.65 1.95 2.15 2.20 2.07 1.94 2.03 2.00 2.04 2.06 1.97 1.89 1.79
0.49 0.59 0.76 0.77 0.74 0.77 0.76 0.73 0.68 0.63 0.62 0.66 0.68 0.72 0.80 0.94 0.94 0.89 0.99 0.95 1.10 1.11 1.02 0.97 0.96 0.95 1.01 1.06 1.19 1.33 1.35 1.44 1.67 1.74 1.75 1.77 1.83 1.98 2.04 2.06 2.13 2.06 2.03
0.36 0.46 0.56 0.58 0.62 0.64 0.62 0.62 0.58 0.54 0.55 0.58 0.62 0.69 0.78 0.78 0.80 0.78 0.85 0.97 1.13 1.10 0.98 0.98 0.96 0.94 1.11 1.18 1.17 1.26 1.36 1.35 1.47 1.64 1.85 1.83 1.75 1.76 1.87 1.91 2.02 2.05 2.04
0.27 0.36 0.46 0.48 0.50 0.51 0.56 0.58 0.58 0.54 0.51 0.52 0.54 0.58 0.66 0.70 0.83 0.70 0.79 0.99 1.12 1.15 1.12 1.01 1.11 1.10 1.21 1.18 1.14 1.28 1.36 1.22 1.14 1.24 1.40 1.44 1.36 1.38 1.59 1.61 1.81 1.95 1.86
0.17 0.24 0.31 0.39 0.46 0.53 0.58 0.59 0.62 0.59 0.54 0.53 0.58 0.59 0.58 0.69 0.83 0.78 0.82 0.91 1.12 1.18 1.21 1.14 1.00 1.06 1.05 1.11 1.19 1.27 1.47 1.32 1.18 1.24 1.35 1.33 1.21 1.19 1.26 1.34 1.48 1.74 1.80
0.12 0.18 0.26 0.35 0.43 0.52 0.62 0.64 0.63 0.62 0.61 0.62 0.62 0.65 0.63 0.62 0.71 0.76 0.80 0.88 0.99 1.04 1.14 1.11 1.03 1.06 0.92 0.92 0.98 1.12 1.39 1.31 1.17 1.20 1.26 1.26 1.21 1.13 1.17 1.19 1.26 1.38 1.53
0.10 0.14 0.21 0.25 0.28 0.34 0.43 0.53 0.59 0.61 0.61 0.61 0.65 0.73 0.75 0.69 0.73 0.85 0.74 0.73 0.81 0.84 0.86 0.97 0.94 0.89 0.81 0.76 0.86 0.98 1.10 1.23 1.25 1.19 1.13 1.12 1.11 1.09 1.14 1.11 1.11 1.19 1.24
0.10 0.12 0.15 0.17 0.17 0.19 0.29 0.36 0.42 0.49 0.55 0.62 0.69 0.77 0.86 0.82 0.75 0.73 0.68 0.66 0.69 0.66 0.61 0.61 0.63 0.66 0.65 0.66 0.72 0.78 0.91 1.11 1.25 1.18 1.06 1.08 1.08 1.07 1.08 1.02 1.03 1.10 1.14
0.09 0.09 0.11 0.13 0.15 0.17 0.22 0.30 0.34 0.42 0.46 0.51 0.61 0.73 0.79 0.79 0.80 0.88 0.86 0.81 0.78 0.76 0.71 0.63 0.58 0.61 0.67 0.72 0.73 0.73 0.80 0.94 1.04 1.04 0.98 0.95 0.99 1.03 1.03 0.97 0.94 0.98 1.02
0.15 0.12 0.11 0.13 0.16 0.18 0.20 0.23 0.22 0.26 0.27 0.31 0.37 0.44 0.50 0.55 0.56 0.54 0.60 0.67 0.67 0.65 0.76 0.80 0.77 0.79 0.79 0.76 0.76 0.71 0.68 0.73 0.86 0.93 0.93 0.89 0.86 0.91 0.97 0.96 0.95 0.97 0.99
0.23 0.21 0.17 0.15 0.17 0.19 0.19 0.20 0.22 0.20 0.18 0.18 0.21 0.28 0.36 0.38 0.38 0.37 0.41 0.49 0.56 0.59 0.73 0.76 0.70 0.65 0.64 0.61 0.62 0.63 0.62 0.62 0.66 0.77 0.82 0.84 0.81 0.83 0.92 0.97 0.98 1.02 1.03
0.12 0.14 0.16 0.20 0.17 0.18 0.22 0.30 0.34 0.36 0.30 0.22 0.18 0.20 0.25 0.30 0.33 0.36 0.40 0.43 0.43 0.45 0.52 0.60 0.57 0.53 0.49 0.48 0.48 0.47 0.50 0.52 0.55 0.61 0.69 0.74 0.80 0.83 0.86 0.93 0.97 0.96 0.97
0.09 0.13 0.20 0.22 0.19 0.20 0.27 0.37 0.42 0.42 0.39 0.30 0.20 0.16 0.17 0.20 0.25 0.30 0.35 0.39 0.38 0.33 0.34 0.42 0.45 0.45 0.42 0.38 0.35 0.34 0.35 0.36 0.40 0.48 0.57 0.63 0.69 0.75 0.79 0.84 0.89 0.95 0.95
0.13 0.16 0.23 0.28 0.24 0.25 0.28 0.28 0.27 0.30 0.29 0.24 0.20 0.19 0.18 0.19 0.20 0.22 0.26 0.29 0.31 0.29 0.30 0.33 0.35 0.36 0.35 0.35 0.33 0.31 0.33 0.34 0.34 0.39 0.47 0.57 0.62 0.64 0.65 0.70 0.79 0.84 0.83
0.15 0.14 0.15 0.26 0.29 0.25 0.24 0.22 0.23 0.26 0.24 0.21 0.19 0.18 0.20 0.21 0.22 0.23 0.24 0.27 0.29 0.31 0.31 0.30 0.30 0.34 0.34 0.33 0.32 0.33 0.34 0.34 0.33 0.36 0.40 0.45 0.50 0.54 0.57 0.59 0.62 0.68 0.74
0.12 0.12 0.14 0.23 0.28 0.23 0.20 0.21 0.23 0.23 0.22 0.20 0.18 0.16 0.17 0.18 0.20 0.23 0.25 0.29 0.31 0.33 0.33 0.31 0.32 0.35 0.37 0.34 0.32 0.34 0.36 0.37 0.35 0.37 0.40 0.43 0.45 0.47 0.51 0.52 0.54 0.58 0.61
0.11 0.11 0.12 0.16 0.17 0.15 0.15 0.19 0.21 0.23 0.21 0.20 0.18 0.18 0.17 0.17 0.18 0.21 0.26 0.33 0.38 0.38 0.34 0.30 0.32 0.36 0.39 0.39 0.38 0.38 0.37 0.37 0.37 0.39 0.42 0.46 0.48 0.51 0.53 0.55 0.55 0.59 0.64
0.12 0.12 0.13 0.15 0.16 0.17 0.21 0.22 0.21 0.21 0.23 0.23 0.21 0.21 0.20 0.19 0.18 0.20 0.25 0.31 0.34 0.35 0.34 0.31 0.32 0.36 0.41 0.44 0.46 0.44 0.40 0.39 0.36 0.36 0.40 0.44 0.47 0.49 0.52 0.54 0.57 0.59 0.65
0.13 0.13 0.14 0.15 0.16 0.19 0.22 0.23 0.21 0.22 0.24 0.27 0.27 0.25 0.24 0.24 0.22 0.22 0.23 0.28 0.29 0.29 0.30 0.32 0.36 0.39 0.41 0.41 0.42 0.45 0.53 0.52 0.45 0.42 0.41 0.45 0.49 0.50 0.54 0.58 0.62 0.65 0.70
0.13 0.12 0.14 0.17 0.19 0.21 0.23 0.25 0.23 0.23 0.25 0.27 0.30 0.31 0.31 0.28 0.25 0.25 0.27 0.29 0.28 0.28 0.31 0.32 0.34 0.37 0.39 0.40 0.38 0.40 0.45 0.44 0.44 0.45 0.43 0.44 0.49 0.54 0.59 0.63 0.66 0.72 0.79